| time (UTC) | temp F | wind direction | speed knots | gust knots | rain 1hr in | rain 24hr in | rain mn in | humidity % | barometer mb |
| 20260502215521 | 58 | 251 | 0.9 | 5.2 | 0.00 | 0.00 | 0.00 | 36 | 1020.2 |
| 20260502215031 | 58 | 290 | 1.7 | 5.2 | 0.00 | 0.00 | 0.00 | 38 | 1020.2 |
| 20260502214619 | 58 | 243 | 0.9 | 4.3 | 0.00 | 0.00 | 0.00 | 40 | 1020.4 |
| 20260502214032 | 58 | 262 | 1.7 | 7.0 | 0.00 | 0.00 | 0.00 | 39 | 1020.3 |
| 20260502213528 | 58 | 253 | 1.7 | 5.2 | 0.00 | 0.00 | 0.00 | 39 | 1020.4 |
| 20260502213130 | 58 | 262 | 1.7 | 5.2 | 0.00 | 0.00 | 0.00 | 39 | 1020.5 |
| 20260502212532 | 58 | 115 | 0.9 | 6.1 | 0.00 | 0.00 | 0.00 | 40 | 1020.5 |
| 20260502212035 | 58 | 234 | 2.6 | 6.1 | 0.00 | 0.00 | 0.00 | 40 | 1020.6 |
| 20260502211618 | 58 | 250 | 0.0 | 4.3 | 0.00 | 0.00 | 0.00 | 39 | 1020.7 |
| 20260502211027 | 58 | 249 | 0.9 | 4.3 | 0.00 | 0.00 | 0.00 | 39 | 1020.7 |
| 20260502210530 | 58 | 235 | 0.9 | 6.1 | 0.00 | 0.00 | 0.00 | 40 | 1020.7 |
| 20260502210131 | 58 | 155 | 2.6 | 6.1 | 0.00 | 0.00 | 0.00 | 40 | 1020.5 |
| 20260502205531 | 58 | 283 | 2.6 | 6.1 | 0.00 | 0.00 | 0.00 | 39 | 1020.4 |
| 20260502205041 | 59 | 237 | 0.9 | 6.1 | 0.00 | 0.00 | 0.00 | 45 | 1020.5 |
| 20260502204553 | 59 | 117 | 1.7 | 6.1 | 0.00 | 0.00 | 0.00 | 43 | 1020.6 |
| 20260502204026 | 59 | 249 | 0.9 | 4.3 | 0.00 | 0.00 | 0.00 | 40 | 1020.6 |
| 20260502203532 | 60 | 282 | 1.7 | 4.3 | 0.00 | 0.00 | 0.00 | 43 | 1020.7 |
| 20260502203059 | 59 | 280 | 0.9 | 5.2 | 0.00 | 0.00 | 0.00 | 46 | 1020.7 |
| 20260502202525 | 58 | 350 | 0.9 | 5.2 | 0.00 | 0.00 | 0.00 | 43 | 1020.8 |
| 20260502202036 | 58 | 290 | 0.9 | 4.3 | 0.00 | 0.00 | 0.00 | 42 | 1020.7 |
| 20260502201621 | 58 | 134 | 1.7 | 4.3 | 0.00 | 0.00 | 0.00 | 40 | 1020.7 |
| 20260502201029 | 59 | 230 | 0.9 | 3.5 | 0.00 | 0.00 | 0.00 | 38 | 1020.8 |
| 20260502200524 | 59 | 113 | 0.9 | 6.1 | 0.00 | 0.00 | 0.00 | 39 | 1020.8 |
| 20260502200101 | 59 | 249 | 1.7 | 6.1 | 0.00 | 0.00 | 0.00 | 39 | 1021.0 |
| 20260502195520 | 59 | 283 | 0.9 | 6.1 | 0.00 | 0.00 | 0.00 | 40 | 1021.0 |
| 20260502195031 | 59 | 259 | 1.7 | 6.1 | 0.00 | 0.00 | 0.00 | 39 | 1021.0 |
| 20260502194551 | 59 | 136 | 0.0 | 5.2 | 0.00 | 0.00 | 0.00 | 39 | 1021.0 |
| 20260502194110 | 59 | 259 | 1.7 | 7.8 | 0.00 | 0.00 | 0.00 | 45 | 1021.0 |
| 20260502193537 | 58 | 257 | 0.0 | 7.8 | 0.00 | 0.00 | 0.00 | 43 | 1021.2 |
| 20260502193126 | 58 | 271 | 1.7 | 4.3 | 0.00 | 0.00 | 0.00 | 38 | 1021.4 |
| 20260502192527 | 58 | 264 | 0.9 | 4.3 | 0.00 | 0.00 | 0.00 | 39 | 1021.2 |
| 20260502192025 | 58 | 314 | 0.9 | 3.5 | 0.00 | 0.00 | 0.00 | 47 | 1021.2 |
| 20260502191622 | 57 | 225 | 0.9 | 4.3 | 0.00 | 0.00 | 0.00 | 43 | 1021.3 |
| 20260502191035 | 57 | 257 | 0.0 | 4.3 | 0.00 | 0.00 | 0.00 | 45 | 1021.4 |
| 20260502190535 | 57 | 128 | 1.7 | 5.2 | 0.00 | 0.00 | 0.00 | 41 | 1021.5 |
| 20260502190122 | 57 | 273 | 0.9 | 3.5 | 0.00 | 0.00 | 0.00 | 43 | 1021.5 |
| 20260502185536 | 58 | 260 | 0.9 | 6.1 | 0.00 | 0.00 | 0.00 | 40 | 1021.6 |
| 20260502185035 | 58 | 159 | 1.7 | 6.1 | 0.00 | 0.00 | 0.00 | 43 | 1021.6 |
| 20260502184616 | 58 | 294 | 0.9 | 4.3 | 0.00 | 0.00 | 0.00 | 43 | 1021.6 |
| 20260502184032 | 58 | 227 | 1.7 | 5.2 | 0.00 | 0.00 | 0.00 | 44 | 1021.7 |
| 20260502183544 | 57 | 222 | 0.0 | 5.2 | 0.00 | 0.00 | 0.00 | 45 | 1021.6 |
| 20260502183052 | 57 | 127 | 1.7 | 4.3 | 0.00 | 0.00 | 0.00 | 44 | 1021.7 |
| 20260502182538 | 57 | 178 | 0.9 | 4.3 | 0.00 | 0.00 | 0.00 | 45 | 1021.8 |
| 20260502182044 | 57 | 303 | 0.9 | 7.0 | 0.00 | 0.00 | 0.00 | 43 | 1021.9 |
| 20260502181630 | 57 | 264 | 2.6 | 7.0 | 0.00 | 0.00 | 0.00 | 46 | 1021.9 |
| 20260502181031 | 56 | 206 | 0.9 | 5.2 | 0.00 | 0.00 | 0.00 | 45 | 1021.9 |
| 20260502180523 | 57 | 162 | 1.7 | 5.2 | 0.00 | 0.00 | 0.00 | 44 | 1022.1 |
| 20260502170520 | 56 | 138 | 0.0 | 2.6 | 0.00 | 0.00 | 0.00 | 45 | 1022.0 |
| 20260502170113 | 57 | 264 | 0.9 | 5.2 | 0.00 | 0.00 | 0.00 | 42 | 1022.0 |
| 20260502164035 | 56 | 105 | 0.9 | 4.3 | 0.00 | 0.00 | 0.00 | 45 | 1021.8 |
| 20260502163520 | 55 | 72 | 0.9 | 4.3 | 0.00 | 0.00 | 0.00 | 46 | 1022.1 |
| 20260502163122 | 54 | 68 | 1.7 | 7.0 | 0.00 | 0.00 | 0.00 | 45 | 1022.1 |
| 20260502162526 | 55 | 67 | 2.6 | 7.0 | 0.00 | 0.00 | 0.00 | 45 | 1021.9 |
| 20260502162038 | 55 | 65 | 1.7 | 9.6 | 0.00 | 0.00 | 0.00 | 44 | 1022.0 |
| 20260502161636 | 55 | 295 | 0.0 | 2.6 | 0.00 | 0.00 | 0.00 | 47 | 1022.2 |
| 20260502161015 | 54 | 240 | 0.0 | 2.6 | 0.00 | 0.00 | 0.00 | 42 | 1022.1 |
| 20260502160531 | 54 | 240 | 0.0 | 3.5 | 0.00 | 0.00 | 0.00 | 44 | 1022.1 |
| 20260502160108 | 54 | 122 | 0.0 | 3.5 | 0.00 | 0.00 | 0.00 | 49 | 1022.1 |
| 20260502152036 | 51 | 282 | 0.9 | 3.5 | 0.00 | 0.00 | 0.00 | 46 | 1022.1 |
| 20260502151613 | 51 | 261 | 1.7 | 3.5 | 0.00 | 0.00 | 0.00 | 44 | 1022.0 |
| 20260502151022 | 51 | 263 | 0.9 | 2.6 | 0.00 | 0.00 | 0.00 | 44 | 1022.0 |
| 20260502150537 | 51 | 258 | 0.9 | 2.6 | 0.00 | 0.00 | 0.00 | 43 | 1022.0 |
| 20260502150117 | 51 | 278 | 0.9 | 2.6 | 0.00 | 0.00 | 0.00 | 42 | 1022.1 |
| 20260502140113 | 50 | 255 | 0.0 | 2.6 | 0.00 | 0.00 | 0.00 | 44 | 1021.8 |
| 20260502130521 | 46 | 254 | 0.0 | 0.9 | 0.00 | 0.00 | 0.00 | 46 | 1021.5 |
| 20260502123521 | 43 | 233 | 0.9 | 1.7 | 0.00 | 0.00 | 0.00 | 47 | 1021.0 |
| 20260502123053 | 43 | 151 | 0.0 | 0.9 | 0.00 | 0.00 | 0.00 | 48 | 1021.0 |
| 20260502122529 | 44 | 152 | 0.0 | 0.9 | 0.00 | 0.00 | 0.00 | 47 | 1021.0 |
| 20260502122030 | 44 | 151 | 0.0 | 1.7 | 0.00 | 0.00 | 0.00 | 47 | 1021.1 |
| 20260502121608 | 44 | 151 | 0.9 | 1.7 | 0.00 | 0.00 | 0.00 | 46 | 1021.1 |
| 20260502121028 | 44 | 151 | 0.9 | 1.7 | 0.00 | 0.00 | 0.00 | 46 | 1021.1 |
| 20260502120523 | 44 | 151 | 0.0 | 0.9 | 0.00 | 0.00 | 0.00 | 46 | 1021.0 |
| 20260502120110 | 45 | 152 | 0.0 | 0.9 | 0.00 | 0.00 | 0.00 | 45 | 1021.0 |
| 20260502115526 | 45 | 152 | 0.0 | 0.9 | 0.00 | 0.00 | 0.00 | 44 | 1021.1 |
| 20260502115045 | 45 | 151 | 0.0 | 1.7 | 0.00 | 0.00 | 0.00 | 45 | 1021.0 |
| 20260502114617 | 45 | 151 | 0.0 | 1.7 | 0.00 | 0.00 | 0.00 | 45 | 1021.0 |
| 20260502114031 | 45 | 152 | 0.9 | 1.7 | 0.00 | 0.00 | 0.00 | 45 | 1021.0 |
| 20260502113535 | 45 | 151 | 0.9 | 1.7 | 0.00 | 0.00 | 0.00 | 45 | 1020.9 |
| 20260502113122 | 45 | 152 | 0.9 | 1.7 | 0.00 | 0.00 | 0.00 | 45 | 1021.0 |
| 20260502112535 | 45 | 152 | 0.9 | 0.9 | 0.00 | 0.00 | 0.00 | 45 | 1020.9 |
| 20260502112023 | 45 | 151 | 0.9 | 1.7 | 0.00 | 0.00 | 0.00 | 45 | 1021.0 |
| 20260502111642 | 46 | 151 | 0.9 | 1.7 | 0.00 | 0.00 | 0.00 | 44 | 1021.0 |
| 20260502111036 | 46 | 151 | 0.9 | 1.7 | 0.00 | 0.00 | 0.00 | 45 | 1021.0 |
| 20260502110520 | 46 | 151 | 0.9 | 0.9 | 0.00 | 0.00 | 0.00 | 45 | 1021.0 |
| 20260502110153 | 46 | 151 | 0.0 | 0.9 | 0.00 | 0.00 | 0.00 | 45 | 1021.0 |
| 20260502105525 | 46 | 151 | 0.9 | 0.9 | 0.00 | 0.00 | 0.00 | 45 | 1021.0 |
| 20260502105021 | 46 | 152 | 0.9 | 1.7 | 0.00 | 0.00 | 0.00 | 45 | 1021.1 |
| 20260502104630 | 46 | 152 | 0.9 | 1.7 | 0.00 | 0.00 | 0.00 | 46 | 1021.0 |
| 20260502104023 | 46 | 152 | 0.9 | 1.7 | 0.00 | 0.00 | 0.00 | 46 | 1021.1 |
| 20260502103531 | 46 | 152 | 0.9 | 1.7 | 0.00 | 0.00 | 0.00 | 45 | 1021.1 |
| 20260502103130 | 46 | 152 | 0.9 | 1.7 | 0.00 | 0.00 | 0.00 | 45 | 1021.0 |
| 20260502102524 | 47 | 152 | 0.0 | 1.7 | 0.00 | 0.00 | 0.00 | 44 | 1021.0 |
| 20260502102025 | 47 | 151 | 0.0 | 0.9 | 0.00 | 0.00 | 0.00 | 43 | 1021.0 |
| 20260502101609 | 47 | 151 | 0.0 | 0.0 | 0.00 | 0.00 | 0.00 | 43 | 1020.9 |
| 20260502101039 | 47 | 151 | 0.0 | 0.9 | 0.00 | 0.00 | 0.00 | 43 | 1020.7 |
| 20260502100531 | 47 | 151 | 0.0 | 1.7 | 0.00 | 0.00 | 0.00 | 43 | 1020.7 |
| 20260502100126 | 47 | 153 | 0.9 | 1.7 | 0.00 | 0.00 | 0.00 | 43 | 1020.7 |
| 20260502091035 | 46 | 157 | 0.9 | 1.7 | 0.00 | 0.00 | 0.00 | 45 | 1020.6 |
| 20260502090530 | 46 | 157 | 0.9 | 1.7 | 0.00 | 0.00 | 0.00 | 45 | 1020.6 |
| 20260502090148 | 46 | 160 | 0.9 | 1.7 | 0.00 | 0.00 | 0.00 | 46 | 1020.6 |
| 20260502071024 | 49 | 147 | 0.0 | 0.9 | 0.00 | 0.00 | 0.00 | 40 | 1020.8 |
| 20260502070527 | 49 | 148 | 0.0 | 0.0 | 0.00 | 0.00 | 0.00 | 39 | 1020.9 |
| 20260502070125 | 49 | 148 | 0.0 | 0.0 | 0.00 | 0.00 | 0.00 | 39 | 1020.9 |
| 20260502065537 | 50 | 148 | 0.0 | 0.9 | 0.00 | 0.00 | 0.00 | 38 | 1021.0 |
| 20260502065036 | 50 | 148 | 0.0 | 0.9 | 0.00 | 0.00 | 0.00 | 38 | 1021.0 |
| 20260502064642 | 50 | 148 | 0.0 | 1.7 | 0.00 | 0.00 | 0.00 | 39 | 1020.8 |
| 20260502064015 | 50 | 148 | 0.0 | 2.6 | 0.00 | 0.00 | 0.00 | 39 | 1020.9 |
| 20260502063524 | 50 | 148 | 0.0 | 2.6 | 0.00 | 0.00 | 0.00 | 39 | 1020.9 |
| 20260502063131 | 49 | 143 | 0.9 | 1.7 | 0.00 | 0.00 | 0.00 | 39 | 1020.9 |
| 20260502062528 | 50 | 142 | 0.9 | 1.7 | 0.00 | 0.00 | 0.00 | 38 | 1020.8 |
| 20260502062029 | 50 | 142 | 0.9 | 1.7 | 0.00 | 0.00 | 0.00 | 37 | 1020.8 |
| 20260502061618 | 50 | 141 | 0.9 | 1.7 | 0.00 | 0.00 | 0.00 | 37 | 1020.8 |
| 20260502061034 | 51 | 141 | 0.0 | 0.9 | 0.00 | 0.00 | 0.00 | 37 | 1020.7 |
| 20260502060530 | 50 | 141 | 0.0 | 1.7 | 0.00 | 0.00 | 0.00 | 37 | 1020.8 |
| 20260502060101 | 50 | 141 | 0.9 | 1.7 | 0.00 | 0.00 | 0.00 | 38 | 1020.8 |
| 20260502055526 | 50 | 143 | 0.9 | 1.7 | 0.00 | 0.00 | 0.00 | 38 | 1020.8 |
| 20260502055024 | 50 | 143 | 0.9 | 1.7 | 0.00 | 0.00 | 0.00 | 38 | 1020.8 |
| 20260502054635 | 51 | 136 | 0.9 | 1.7 | 0.00 | 0.00 | 0.00 | 37 | 1020.8 |
| 20260502054028 | 50 | 143 | 0.9 | 1.7 | 0.00 | 0.00 | 0.00 | 38 | 1020.8 |
| 20260502053527 | 51 | 141 | 0.9 | 1.7 | 0.00 | 0.00 | 0.00 | 37 | 1020.8 |
| 20260502053030 | 51 | 144 | 0.0 | 1.7 | 0.00 | 0.00 | 0.00 | 36 | 1020.9 |
| 20260502052527 | 51 | 144 | 0.9 | 1.7 | 0.00 | 0.00 | 0.00 | 35 | 1020.8 |
| 20260502052024 | 51 | 136 | 0.9 | 1.7 | 0.00 | 0.00 | 0.00 | 35 | 1020.9 |
| 20260502051703 | 51 | 137 | 0.0 | 1.7 | 0.00 | 0.00 | 0.00 | 36 | 1020.8 |
| 20260502051016 | 51 | 136 | 0.0 | 1.7 | 0.00 | 0.00 | 0.00 | 36 | 1020.9 |
| 20260502050522 | 51 | 136 | 0.9 | 0.9 | 0.00 | 0.00 | 0.00 | 36 | 1020.9 |
| 20260502050137 | 51 | 136 | 0.0 | 1.7 | 0.00 | 0.00 | 0.00 | 35 | 1021.0 |
| 20260502045524 | 51 | 136 | 0.9 | 1.7 | 0.00 | 0.00 | 0.00 | 36 | 1020.9 |
| 20260502045036 | 50 | 120 | 0.9 | 1.7 | 0.00 | 0.00 | 0.00 | 36 | 1020.9 |
| 20260502044632 | 51 | 148 | 0.0 | 2.6 | 0.00 | 0.00 | 0.00 | 36 | 1021.0 |
| 20260502044023 | 51 | 155 | 0.0 | 2.6 | 0.00 | 0.00 | 0.00 | 36 | 1021.0 |
| 20260502043524 | 51 | 139 | 0.0 | 1.7 | 0.00 | 0.00 | 0.00 | 37 | 1021.0 |
| 20260502043136 | 51 | 140 | 0.0 | 1.7 | 0.00 | 0.00 | 0.00 | 37 | 1021.0 |
| 20260502042523 | 51 | 116 | 0.0 | 0.9 | 0.00 | 0.00 | 0.00 | 36 | 1021.0 |
| 20260502042042 | 51 | 116 | 0.0 | 0.9 | 0.00 | 0.00 | 0.00 | 36 | 1021.0 |
| 20260502041629 | 51 | 116 | 0.0 | 0.9 | 0.00 | 0.00 | 0.00 | 36 | 1021.0 |
| 20260502041030 | 51 | 111 | 0.0 | 0.9 | 0.00 | 0.00 | 0.00 | 36 | 1021.0 |
| 20260502040518 | 51 | 128 | 0.0 | 1.7 | 0.00 | 0.00 | 0.00 | 37 | 1021.1 |
| 20260502040150 | 51 | 146 | 0.9 | 2.6 | 0.00 | 0.00 | 0.00 | 37 | 1021.1 |
| 20260502035533 | 51 | 146 | 0.9 | 2.6 | 0.00 | 0.00 | 0.00 | 36 | 1021.1 |
| 20260502035018 | 51 | 127 | 0.0 | 0.9 | 0.00 | 0.00 | 0.00 | 36 | 1021.0 |
| 20260502034639 | 52 | 122 | 0.0 | 0.9 | 0.00 | 0.00 | 0.00 | 36 | 1021.0 |
| 20260502034031 | 52 | 110 | 0.0 | 0.9 | 0.00 | 0.00 | 0.00 | 36 | 1021.0 |
| 20260502033526 | 52 | 109 | 0.0 | 1.7 | 0.00 | 0.00 | 0.00 | 36 | 1020.9 |
| 20260502033149 | 52 | 113 | 0.0 | 1.7 | 0.00 | 0.00 | 0.00 | 35 | 1020.9 |
| 20260502032523 | 51 | 139 | 0.0 | 1.7 | 0.00 | 0.00 | 0.00 | 37 | 1020.9 |
| 20260502032038 | 52 | 144 | 0.0 | 1.7 | 0.00 | 0.00 | 0.00 | 37 | 1020.9 |
| 20260502031650 | 52 | 103 | 0.0 | 0.9 | 0.00 | 0.00 | 0.00 | 37 | 1020.8 |
| 20260502031035 | 52 | 103 | 0.0 | 1.7 | 0.00 | 0.00 | 0.00 | 37 | 1020.7 |
| 20260502030523 | 51 | 131 | 0.0 | 2.6 | 0.00 | 0.00 | 0.00 | 38 | 1020.6 |
| 20260502030141 | 52 | 75 | 0.0 | 2.6 | 0.00 | 0.00 | 0.00 | 38 | 1020.6 |
| 20260502025542 | 51 | 96 | 0.0 | 1.7 | 0.00 | 0.00 | 0.00 | 38 | 1020.5 |
| 20260502025024 | 52 | 319 | 0.0 | 1.7 | 0.00 | 0.00 | 0.00 | 39 | 1020.5 |
| 20260502024703 | 52 | 112 | 0.0 | 0.9 | 0.00 | 0.00 | 0.00 | 38 | 1020.6 |
| 20260502024028 | 52 | 109 | 0.0 | 1.7 | 0.00 | 0.00 | 0.00 | 39 | 1020.5 |
| 20260502023533 | 52 | 110 | 0.0 | 1.7 | 0.00 | 0.00 | 0.00 | 39 | 1020.5 |
| 20260502023152 | 52 | 99 | 0.0 | 1.7 | 0.00 | 0.00 | 0.00 | 40 | 1020.5 |
| 20260502022532 | 51 | 115 | 0.0 | 0.9 | 0.00 | 0.00 | 0.00 | 40 | 1020.5 |
| 20260502022058 | 51 | 98 | 0.0 | 0.9 | 0.00 | 0.00 | 0.00 | 42 | 1020.5 |
| 20260502021620 | 51 | 99 | 0.9 | 1.7 | 0.00 | 0.00 | 0.00 | 42 | 1020.5 |
| 20260502021023 | 51 | 108 | 0.9 | 1.7 | 0.00 | 0.00 | 0.00 | 43 | 1020.4 |
| 20260502020522 | 51 | 113 | 0.0 | 0.9 | 0.00 | 0.00 | 0.00 | 42 | 1020.2 |
| 20260502020132 | 52 | 97 | 0.0 | 0.9 | 0.00 | 0.00 | 0.00 | 41 | 1020.2 |
| 20260502015543 | 52 | 88 | 0.0 | 2.6 | 0.00 | 0.00 | 0.00 | 41 | 1020.2 |
| 20260502015041 | 52 | 87 | 0.0 | 2.6 | 0.00 | 0.00 | 0.00 | 41 | 1020.4 |
| 20260502014702 | 52 | 98 | 0.0 | 2.6 | 0.00 | 0.00 | 0.00 | 41 | 1020.5 |
| 20260502014036 | 53 | 96 | 0.0 | 2.6 | 0.00 | 0.00 | 0.00 | 40 | 1020.3 |
| 20260502013524 | 53 | 94 | 0.0 | 1.7 | 0.00 | 0.00 | 0.00 | 39 | 1020.4 |
| 20260502013120 | 53 | 88 | 0.0 | 1.7 | 0.00 | 0.00 | 0.00 | 39 | 1020.4 |
| 20260502012521 | 54 | 112 | 0.0 | 3.5 | 0.00 | 0.00 | 0.00 | 38 | 1020.4 |
| 20260502012027 | 55 | 93 | 0.9 | 3.5 | 0.00 | 0.00 | 0.00 | 38 | 1020.3 |
| 20260502011626 | 56 | 115 | 0.0 | 0.9 | 0.00 | 0.00 | 0.00 | 35 | 1020.4 |
| 20260502011030 | 56 | 102 | 0.0 | 2.6 | 0.00 | 0.00 | 0.00 | 35 | 1020.5 |
| 20260502010533 | 56 | 98 | 0.0 | 2.6 | 0.00 | 0.00 | 0.00 | 34 | 1020.5 |
| 20260502010124 | 56 | 86 | 0.0 | 1.7 | 0.00 | 0.00 | 0.00 | 34 | 1020.4 |
| 20260502005523 | 56 | 86 | 0.0 | 1.7 | 0.00 | 0.00 | 0.00 | 34 | 1020.7 |
| 20260502005032 | 57 | 91 | 0.0 | 1.7 | 0.00 | 0.00 | 0.00 | 34 | 1020.6 |
| 20260502004624 | 57 | 108 | 0.0 | 2.6 | 0.00 | 0.00 | 0.00 | 33 | 1020.7 |
| 20260502004023 | 57 | 111 | 0.9 | 2.6 | 0.00 | 0.00 | 0.00 | 35 | 1020.8 |
| 20260502003541 | 57 | 79 | 0.0 | 2.6 | 0.00 | 0.00 | 0.00 | 34 | 1020.8 |
| 20260502003128 | 57 | 88 | 1.7 | 3.5 | 0.00 | 0.00 | 0.00 | 33 | 1020.9 |
| 20260502002529 | 58 | 65 | 1.7 | 3.5 | 0.00 | 0.00 | 0.00 | 32 | 1020.9 |
| 20260502002034 | 58 | 67 | 1.7 | 3.5 | 0.00 | 0.00 | 0.00 | 32 | 1020.9 |
| 20260502001647 | 59 | 100 | 0.0 | 5.2 | 0.00 | 0.00 | 0.00 | 31 | 1020.9 |
| 20260502001020 | 59 | 70 | 1.7 | 3.5 | 0.00 | 0.00 | 0.00 | 30 | 1021.0 |
| 20260502000543 | 59 | 113 | 0.9 | 3.5 | 0.00 | 0.00 | 0.00 | 29 | 1021.1 |
| 20260502000138 | 59 | 122 | 0.9 | 5.2 | 0.00 | 0.00 | 0.00 | 33 | 1021.0 |
| 20260501235532 | 58 | 89 | 1.7 | 5.2 | 0.00 | 0.00 | 0.00 | 33 | 1021.1 |
| 20260501235117 | 59 | 91 | 2.6 | 5.2 | 0.00 | 0.00 | 0.00 | 34 | 1021.1 |
| 20260501234703 | 60 | 134 | 0.9 | 3.5 | 0.00 | 0.00 | 0.00 | 30 | 1021.2 |
| 20260501234037 | 60 | 151 | 0.0 | 3.5 | 0.00 | 0.00 | 0.00 | 30 | 1021.1 |
| 20260501233537 | 60 | 88 | 1.7 | 5.2 | 0.00 | 0.00 | 0.00 | 31 | 1021.2 |
| 20260501233133 | 60 | 86 | 1.7 | 5.2 | 0.00 | 0.00 | 0.00 | 33 | 1021.0 |
| 20260501232533 | 60 | 91 | 0.9 | 6.1 | 0.00 | 0.00 | 0.00 | 33 | 1021.1 |
| 20260501232026 | 60 | 60 | 1.7 | 5.2 | 0.00 | 0.00 | 0.00 | 33 | 1021.1 |
| 20260501231645 | 60 | 72 | 0.9 | 6.1 | 0.00 | 0.00 | 0.00 | 32 | 1021.2 |
| 20260501231032 | 60 | 82 | 2.6 | 8.7 | 0.00 | 0.00 | 0.00 | 33 | 1021.1 |
| 20260501230525 | 60 | 132 | 3.5 | 8.7 | 0.00 | 0.00 | 0.00 | 30 | 1021.3 |
| 20260501230150 | 60 | 85 | 1.7 | 7.0 | 0.00 | 0.00 | 0.00 | 34 | 1021.2 |
| 20260501225522 | 60 | 77 | 1.7 | 5.2 | 0.00 | 0.00 | 0.00 | 33 | 1021.2 |
| 20260501225031 | 61 | 64 | 1.7 | 5.2 | 0.00 | 0.00 | 0.00 | 29 | 1021.4 |
| 20260501224629 | 60 | 261 | 1.7 | 5.2 | 0.00 | 0.00 | 0.00 | 29 | 1021.4 |
| 20260501224044 | 60 | 266 | 1.7 | 7.8 | 0.00 | 0.00 | 0.00 | 29 | 1021.4 |
| 20260501223524 | 60 | 149 | 2.6 | 7.8 | 0.00 | 0.00 | 0.00 | 33 | 1021.4 |
| 20260501223154 | 60 | 124 | 2.6 | 5.2 | 0.00 | 0.00 | 0.00 | 30 | 1021.3 |
| 20260501222547 | 60 | 2 | 2.6 | 9.6 | 0.00 | 0.00 | 0.00 | 30 | 1021.4 |
| 20260501222032 | 61 | 141 | 0.9 | 9.6 | 0.00 | 0.00 | 0.00 | 34 | 1021.4 |
| 20260501221709 | 61 | 244 | 0.0 | 3.5 | 0.00 | 0.00 | 0.00 | 29 | 1021.5 |
| 20260501221036 | 60 | 82 | 0.9 | 4.3 | 0.00 | 0.00 | 0.00 | 34 | 1021.5 |
| 20260501220523 | 60 | 82 | 1.7 | 7.0 | 0.00 | 0.00 | 0.00 | 30 | 1021.5 |
| 20260501220133 | 60 | 129 | 0.9 | 7.0 | 0.00 | 0.00 | 0.00 | 33 | 1021.4 |